KQ4HDO Weather Reports


time (UTC)temp
C
wind
direction
speed
KPH
gust
KPH
rain 1hr
cm
rain 24hr
cm
rain mn
cm
humidity
%
barometer
mb
20260906155503 27 7 4.8 12.9 0.00 0.00 0.00 72 1016.7
20260906155003 27 85 6.4 14.5 0.00 0.00 0.00 71 1016.7
20260906154503 27 84 8.0 14.5 0.00 0.00 0.00 72 1016.8
20260906154003 27 69 6.4 16.1 0.00 0.00 0.00 72 1016.7
20260906153503 27 81 9.7 16.1 0.00 0.00 0.00 71 1016.6
20260906153003 27 92 8.0 16.1 0.00 0.00 0.00 72 1016.6
20260906152503 26 86 4.8 14.5 0.00 0.00 0.00 71 1016.5
20260906152218 27 90 9.7 14.5 0.00 0.00 0.00 72 1016.4
20260906151503 27 80 8.0 14.5 0.00 0.00 0.00 72 1016.1
20260906151003 26 74 4.8 16.1 0.00 0.00 0.00 73 1016.1
20260906150503 26 62 6.4 16.1 0.00 0.00 0.00 73 1016.0
20260906150003 26 40 4.8 12.9 0.00 0.00 0.00 74 1016.0
20260906145503 26 60 4.8 14.5 0.00 0.00 0.00 76 1016.0
20260906145003 26 48 3.2 14.5 0.00 0.00 0.00 76 1016.0
20260906144716 26 70 6.4 12.9 0.00 0.00 0.00 75 1016.0
20260906144003 26 90 6.4 14.5 0.00 0.00 0.00 76 1015.9
20260906143716 26 102 6.4 14.5 0.00 0.00 0.00 76 1015.9
20260906143003 26 99 8.0 16.1 0.00 0.00 0.00 76 1015.7
20260906142217 25 84 8.0 12.9 0.00 0.00 0.00 78 1015.6
20260906141503 25 87 6.4 16.1 0.00 0.00 0.00 78 1015.4
20260906141003 25 84 11.3 16.1 0.00 0.00 0.00 77 1015.4
20260906140503 25 102 4.8 11.3 0.00 0.00 0.00 80 1015.4
20260906140003 25 66 3.2 12.9 0.00 0.00 0.00 80 1015.5
20260906135503 25 92 4.8 12.9 0.00 0.00 0.00 81 1015.6
20260906135217 25 95 8.0 12.9 0.00 0.00 0.00 80 1015.6
20260906134503 24 64 4.8 11.3 0.00 0.00 0.00 82 1015.5
20260906134003 24 79 6.4 11.3 0.00 0.00 0.00 82 1015.5
20260906133503 24 3 1.6 14.5 0.00 0.00 0.00 83 1015.5
20260906133003 24 83 6.4 14.5 0.00 0.00 0.00 83 1015.6
20260906132504 24 72 4.8 14.5 0.00 0.00 0.00 84 1015.6
20260906131003 23 76 6.4 12.9 0.00 0.00 0.00 85 1015.5
20260906130503 23 80 4.8 9.7 0.00 0.00 0.00 86 1015.5
20260906130003 23 73 4.8 9.7 0.00 0.00 0.00 86 1015.5
20260906125503 23 69 3.2 11.3 0.00 0.00 0.00 86 1015.5
20260906125003 23 82 4.8 11.3 0.00 0.00 0.00 87 1015.6
20260906124503 23 64 3.2 6.4 0.00 0.00 0.00 87 1015.6
20260906124003 23 41 1.6 6.4 0.00 0.00 0.00 87 1015.5
20260906123503 23 78 4.8 6.4 0.00 0.00 0.00 87 1015.4
20260906123217 23 76 3.2 6.4 0.00 0.00 0.00 88 1015.4
20260906122717 23 62 1.6 6.4 0.00 0.00 0.00 88 1015.3
20260906122003 22 49 1.6 3.2 0.00 0.00 0.00 89 1015.2
20260906120003 22 80 1.6 3.2 0.00 0.00 0.00 89 1014.9
20260906115503 22 30 0.0 3.2 0.00 0.00 0.00 88 1014.8
20260906115003 22 99 0.0 3.2 0.00 0.00 0.00 88 1014.8
20260906114503 22 99 0.0 3.2 0.00 0.00 0.00 87 1014.9
20260906114003 22 360 0.0 3.2 0.00 0.00 0.00 87 1014.8
20260906113503 22 99 0.0 3.2 0.00 0.00 0.00 87 1014.8
20260906113216 22 99 0.0 3.2 0.00 0.00 0.00 87 1014.8
20260906112503 22 99 0.0 3.2 0.00 0.00 0.00 86 1014.6
20260906112003 22 99 1.6 4.8 0.00 0.00 0.00 85 1014.6
20260906111503 22 85 1.6 4.8 0.00 0.00 0.00 85 1014.6
20260906110218 22 79 0.0 1.6 0.00 0.00 0.00 85 1014.7
20260906105503 22 0 0.0 0.0 0.00 0.00 0.00 85 1014.7
20260906105003 22 0 0.0 0.0 0.00 0.00 0.00 85 1014.6
20260906104503 23 360 0.0 1.6 0.00 0.00 0.00 84 1014.6
20260906104218 23 360 0.0 3.2 0.00 0.00 0.00 84 1014.6
20260906103503 23 79 0.0 3.2 0.00 0.00 0.00 83 1014.6
20260906103003 23 79 0.0 3.2 0.00 0.00 0.00 83 1014.6
20260906102503 23 79 1.6 3.2 0.00 0.00 0.00 82 1014.4
20260906102003 23 79 1.6 3.2 0.00 0.00 0.00 82 1014.4
20260906101503 23 79 0.0 4.8 0.00 0.00 0.00 81 1014.3
20260906101003 24 77 1.6 6.4 0.00 0.00 0.00 80 1014.2
20260906100217 24 95 3.2 12.9 0.00 0.00 0.00 80 1014.3
20260906095503 24 90 6.4 11.3 0.00 0.00 0.00 81 1014.3
20260906095003 24 80 6.4 11.3 0.00 0.00 0.00 81 1014.3
20260906094716 24 71 4.8 11.3 0.00 0.00 0.00 81 1014.3
20260906093503 24 78 6.4 11.3 0.00 0.00 0.00 81 1014.0
20260906093217 24 86 4.8 11.3 0.00 0.00 0.00 81 1014.0
20260906092503 25 90 4.8 14.5 0.00 0.00 0.00 82 1014.0
20260906092003 25 96 4.8 16.1 0.00 0.00 0.00 82 1013.9
20260906091503 25 84 8.0 16.1 0.00 0.00 0.00 82 1014.0
20260906091217 25 89 6.4 14.5 0.00 0.00 0.00 83 1014.0
20260906090503 25 78 4.8 12.9 0.00 0.00 0.00 83 1013.9
20260906090003 25 87 4.8 12.9 0.00 0.00 0.00 84 1013.9
20260906083003 25 71 4.8 11.3 0.00 0.00 0.00 86 1013.7
20260906082503 25 72 3.2 6.4 0.00 0.00 0.00 86 1013.7
20260906082003 25 75 3.2 6.4 0.00 0.00 0.00 86 1013.7
20260906081503 25 71 1.6 6.4 0.00 0.00 0.00 86 1013.6
20260906081003 25 77 3.2 6.4 0.00 0.00 0.00 86 1013.4
20260906080503 25 89 3.2 6.4 0.00 0.00 0.00 86 1013.4
20260906080003 26 82 4.8 6.4 0.00 0.00 0.00 85 1013.3
20260906075503 26 80 3.2 11.3 0.00 0.00 0.00 85 1013.4
20260906075003 26 79 4.8 11.3 0.00 0.00 0.00 85 1013.4
20260906073003 26 79 6.4 12.9 0.00 0.00 0.00 84 1013.6
20260906072718 26 83 4.8 12.9 0.00 0.00 0.00 84 1013.7
20260906072003 26 76 4.8 8.0 0.00 0.00 0.00 84 1013.7
20260906071503 26 80 6.4 8.0 0.00 0.00 0.00 84 1013.7
20260906071003 26 75 3.2 6.4 0.00 0.00 0.00 84 1013.7
20260906070503 26 79 4.8 6.4 0.00 0.00 0.00 84 1013.7
20260906070003 26 82 3.2 4.8 0.00 0.00 0.00 84 1013.7
20260906065503 26 77 3.2 6.4 0.00 0.00 0.00 84 1013.7
20260906065003 26 62 3.2 6.4 0.00 0.00 0.00 84 1013.8
20260906064503 26 76 3.2 4.8 0.00 0.00 0.00 84 1013.7
20260906064003 26 42 1.6 3.2 0.00 0.00 0.00 85 1013.6
20260906063503 26 360 0.0 3.2 0.00 0.00 0.00 85 1013.4
20260906063003 25 42 0.0 3.2 0.00 0.00 0.00 85 1013.5
20260906062503 25 18 1.6 3.2 0.00 0.00 0.00 86 1013.5
20260906062003 25 360 0.0 3.2 0.00 0.00 0.00 86 1013.4
20260906061503 25 360 0.0 3.2 0.00 0.00 0.00 84 1013.5
20260906061003 26 18 0.0 3.2 0.00 0.00 0.00 84 1013.5
20260906060503 26 18 1.6 3.2 0.00 0.00 0.00 83 1013.5
20260906060003 26 18 0.0 3.2 0.00 0.00 0.00 84 1013.5
20260906055717 26 18 0.0 3.2 0.00 0.00 0.00 84 1013.5
20260906055003 26 0 0.0 0.0 0.00 0.00 0.00 84 1013.5
20260906054503 26 0 0.0 0.0 0.00 0.00 0.00 84 1013.4
20260906054003 26 0 0.0 0.0 0.00 0.00 0.00 83 1013.4
20260906053503 26 0 0.0 0.0 0.00 0.00 0.00 83 1013.4
20260906053003 26 0 0.0 0.0 0.00 0.00 0.00 84 1013.4
20260906052717 26 0 0.0 0.0 0.00 0.00 0.00 84 1013.4
20260906052218 26 0 0.0 0.0 0.00 0.00 0.00 83 1013.4
20260906051503 26 0 0.0 0.0 0.00 0.00 0.00 82 1013.4
20260906051003 26 360 0.0 0.0 0.00 0.00 0.00 82 1013.5
20260906050503 26 360 0.0 3.2 0.00 0.00 0.00 82 1013.4
20260906050004 26 18 0.0 3.2 0.00 0.00 0.00 82 1013.4
20260906045503 26 0 0.0 0.0 0.00 0.00 0.00 82 1013.3
20260906045003 26 0 0.0 0.0 0.00 0.00 0.00 82 1013.2
20260906044503 26 0 0.0 0.0 0.00 0.00 0.00 81 1013.2
20260906044003 26 0 0.0 0.0 0.00 0.00 0.00 81 1013.2
20260906043717 26 0 0.0 0.0 0.00 0.00 0.00 81 1013.2
20260906043003 27 0 0.0 0.0 0.00 0.00 0.00 79 1013.2
20260906042716 27 0 0.0 0.0 0.00 0.00 0.00 79 1013.1
20260906041503 27 0 0.0 0.0 0.00 0.00 0.00 80 1013.0
20260906041003 27 0 0.0 0.0 0.00 0.00 0.00 80 1013.0
20260906040503 27 0 0.0 0.0 0.00 0.00 0.00 79 1012.9
20260906040217 27 0 0.0 0.0 0.00 0.00 0.00 78 1012.8
20260906035716 27 0 0.0 0.0 0.00 0.00 0.00 78 1012.8
20260906035003 27 0 0.0 0.0 0.00 0.00 0.00 77 1012.9
20260906034503 27 0 0.0 0.0 0.00 0.00 0.00 76 1012.9
20260906034003 27 0 0.0 0.0 0.00 0.00 0.00 75 1012.8
20260906033503 28 0 0.0 0.0 0.00 0.00 0.00 74 1012.9
20260906031503 28 0 0.0 0.0 0.00 0.00 0.00 73 1012.7
20260906031217 28 0 0.0 0.0 0.00 0.00 0.00 73 1012.6
20260906030503 28 360 0.0 0.0 0.00 0.00 0.00 72 1012.4
20260906030003 28 360 0.0 3.2 0.00 0.00 0.00 72 1012.3
20260906025503 28 18 0.0 3.2 0.00 0.00 0.00 71 1012.3
20260906025003 28 18 0.0 3.2 0.00 0.00 0.00 71 1012.3
20260906024503 28 360 0.0 3.2 0.00 0.00 0.00 70 1012.4
20260906024003 28 18 0.0 3.2 0.00 0.00 0.00 70 1012.3
20260906023503 28 18 0.0 3.2 0.00 0.00 0.00 70 1012.2
20260906023003 28 18 1.6 3.2 0.00 0.00 0.00 70 1012.2
20260906022503 28 18 0.0 3.2 0.00 0.00 0.00 70 1012.0
20260906020503 28 22 0.0 3.2 0.00 0.00 0.00 71 1011.7
20260906015003 28 297 0.0 3.2 0.00 0.00 0.00 71 1011.4
20260906014503 28 0 0.0 0.0 0.00 0.00 0.00 71 1011.4
20260906014003 28 0 0.0 0.0 0.00 0.00 0.00 71 1011.5
20260906013503 28 0 0.0 0.0 0.00 0.00 0.00 70 1011.4
20260906013003 28 0 0.0 0.0 0.00 0.00 0.00 70 1011.3
20260906012503 28 0 0.0 0.0 0.00 0.00 0.00 69 1011.3
20260906012003 28 0 0.0 0.0 0.00 0.00 0.00 69 1011.2
20260906011503 28 0 0.0 0.0 0.00 0.00 0.00 68 1011.1
20260906011003 29 0 0.0 0.0 0.00 0.00 0.00 67 1011.1
20260906010717 29 360 0.0 1.6 0.00 0.00 0.00 65 1011.1
20260906010003 30 297 0.0 3.2 0.00 0.00 0.00 64 1011.2
20260906005503 30 360 0.0 3.2 0.00 0.00 0.00 64 1011.1
20260906005003 30 328 0.0 3.2 0.00 0.00 0.00 63 1011.1
20260906004503 30 360 0.0 3.2 0.00 0.00 0.00 63 1011.1
20260906004003 30 297 1.6 3.2 0.00 0.00 0.00 62 1011.0
20260906003717 30 297 1.6 3.2 0.00 0.00 0.00 61 1011.0
20260906003003 31 297 0.0 3.2 0.00 0.00 0.00 61 1011.0
20260906002503 31 297 1.6 3.2 0.00 0.00 0.00 61 1010.9
20260906002003 31 297 1.6 3.2 0.00 0.00 0.00 60 1011.0
20260906001503 31 360 0.0 3.2 0.00 0.00 0.00 60 1011.0
20260906001003 31 297 1.6 3.2 0.00 0.00 0.00 60 1011.0
20260906000503 31 300 1.6 3.2 0.00 0.00 0.00 59 1011.0
20260906000003 31 344 1.6 3.2 0.00 0.00 0.00 59 1011.1
20260905235503 31 36 1.6 4.8 0.00 0.00 0.00 59 1011.1
20260905235003 31 333 1.6 6.4 0.00 0.00 0.00 57 1011.1
20260905234503 31 58 3.2 11.3 0.00 0.00 0.00 58 1011.2
20260905234218 32 71 3.2 11.3 0.00 0.00 0.00 58 1011.2
20260905233503 32 78 1.6 3.2 0.00 0.00 0.00 58 1011.1
20260905233003 31 82 1.6 3.2 0.00 0.00 0.00 58 1011.1
20260905232503 31 82 1.6 3.2 0.00 0.00 0.00 59 1011.1
20260905232218 31 82 1.6 3.2 0.00 0.00 0.00 59 1011.1
20260905231503 31 82 1.6 4.8 0.00 0.00 0.00 57 1011.1
20260905231003 32 96 0.0 4.8 0.00 0.00 0.00 57 1011.1
20260905230503 32 68 3.2 4.8 0.00 0.00 0.00 56 1011.2
20260905230003 32 317 0.0 3.2 0.00 0.00 0.00 56 1011.2
20260905225716 32 317 0.0 3.2 0.00 0.00 0.00 55 1011.2
20260905225003 32 306 0.0 4.8 0.00 0.00 0.00 54 1011.2
20260905224503 32 280 1.6 6.4 0.00 0.00 0.00 55 1011.3
20260905224003 32 306 3.2 6.4 0.00 0.00 0.00 55 1011.2
20260905223503 32 326 3.2 6.4 0.00 0.00 0.00 56 1011.1
20260905223217 32 285 3.2 4.8 0.00 0.00 0.00 57 1011.1
20260905222503 31 309 1.6 11.3 0.00 0.00 0.00 56 1010.8
20260905222003 31 297 3.2 12.9 0.00 0.00 0.00 56 1010.9
20260905221503 31 276 4.8 12.9 0.00 0.00 0.00 56 1011.1
20260905221217 31 285 3.2 14.5 0.00 0.00 0.00 56 1011.0
20260905220716 32 266 3.2 14.5 0.00 0.00 0.00 55 1011.0
20260905220003 32 288 4.8 17.7 0.00 0.00 0.00 52 1011.3
20260905215503 33 279 6.4 19.3 0.00 0.00 0.00 51 1011.4
20260905215217 33 283 3.2 20.9 0.00 0.00 0.00 50 1011.4
20260905214718 34 322 9.7 20.9 0.00 0.00 0.00 48 1011.3
20260905214003 35 24 1.6 4.8 0.00 0.00 0.00 44 1011.2
20260905213718 35 71 1.6 4.8 0.00 0.00 0.00 44 1011.2
20260905213003 35 6 3.2 9.7 0.00 0.00 0.00 44 1011.1
20260905212503 35 322 4.8 9.7 0.00 0.00 0.00 45 1011.1
20260905212003 35 338 3.2 11.3 0.00 0.00 0.00 46 1011.1
20260905211503 35 334 4.8 11.3 0.00 0.00 0.00 45 1010.9
20260905211217 35 74 4.8 14.5 0.00 0.00 0.00 46 1010.9
20260905210503 35 46 6.4 22.5 0.00 0.00 0.00 45 1010.9
20260905210217 35 340 6.4 22.5 0.00 0.00 0.00 44 1011.0
20260905205503 36 348 6.4 25.7 0.00 0.00 0.00 46 1011.1
20260905205003 36 328 12.9 25.7 0.00 0.00 0.00 44 1011.2
20260905204718 37 337 9.7 25.7 0.00 0.00 0.00 43 1011.3
20260905204003 36 313 4.8 12.9 0.00 0.00 0.00 42 1011.2
20260905203718 36 332 3.2 14.5 0.00 0.00 0.00 42 1011.3
20260905203003 36 321 8.0 14.5 0.00 0.00 0.00 43 1011.3
20260905202503 37 348 4.8 16.1 0.00 0.00 0.00 42 1011.2
20260905202003 37 330 9.7 16.1 0.00 0.00 0.00 42 1011.2
20260905201503 37 326 4.8 11.3 0.00 0.00 0.00 43 1011.3
20260905201003 36 329 3.2 19.3 0.00 0.00 0.00 42 1011.3
20260905200503 37 30 4.8 19.3 0.00 0.00 0.00 40 1011.4
20260905200004 37 345 8.0 16.1 0.00 0.00 0.00 40 1011.5
20260905195503 38 82 8.0 14.5 0.00 0.00 0.00 41 1011.4
20260905195216 38 83 8.0 14.5 0.00 0.00 0.00 40 1011.4
20260905194503 37 74 3.2 17.7 0.00 0.00 0.00 42 1011.5
20260905194003 37 54 6.4 17.7 0.00 0.00 0.00 39 1011.6
20260905193503 38 342 4.8 14.5 0.00 0.00 0.00 42 1011.6
20260905193003 37 351 4.8 17.7 0.00 0.00 0.00 41 1011.7
20260905192503 38 81 11.3 17.7 0.00 0.00 0.00 40 1011.7
20260905192003 38 51 8.0 16.1 0.00 0.00 0.00 42 1011.7
20260905191503 38 46 6.4 16.1 0.00 0.00 0.00 41 1011.8
20260905191003 37 17 4.8 17.7 0.00 0.00 0.00 39 1011.8
20260905190503 37 305 9.7 22.5 0.00 0.00 0.00 38 1012.0
20260905190003 38 318 9.7 22.5 0.00 0.00 0.00 38 1012.1
20260905185503 37 321 6.4 17.7 0.00 0.00 0.00 39 1012.0
20260905185003 37 305 8.0 12.9 0.00 0.00 0.00 39 1012.0
20260905184717 37 272 4.8 19.3 0.00 0.00 0.00 39 1012.0
20260905184003 37 288 9.7 19.3 0.00 0.00 0.00 38 1012.2
20260905183717 37 292 4.8 19.3 0.00 0.00 0.00 39 1012.1
20260905183218 37 332 8.0 19.3 0.00 0.00 0.00 38 1012.1
20260905182503 37 300 6.4 12.9 0.00 0.00 0.00 40 1012.4
20260905182218 37 312 6.4 11.3 0.00 0.00 0.00 39 1012.4
20260905181503 37 339 4.8 14.5 0.00 0.00 0.00 40 1012.3
20260905181003 37 315 4.8 12.9 0.00 0.00 0.00 42 1012.3
20260905180717 36 312 1.6 12.9 0.00 0.00 0.00 42 1012.4
20260905180003 37 336 3.2 11.3 0.00 0.00 0.00 42 1012.6
20260905175503 37 286 4.8 11.3 0.00 0.00 0.00 41 1012.6
20260905175003 37 9 4.8 9.7 0.00 0.00 0.00 40 1012.6
20260905174503 37 329 4.8 11.3 0.00 0.00 0.00 40 1012.7
20260905174003 37 316 4.8 11.3 0.00 0.00 0.00 44 1012.8
20260905173503 37 288 4.8 9.7 0.00 0.00 0.00 43 1012.8
20260905173003 36 256 3.2 8.0 0.00 0.00 0.00 44 1012.9
20260905172503 36 231 3.2 8.0 0.00 0.00 0.00 44 1012.8
20260905172003 36 269 1.6 4.8 0.00 0.00 0.00 46 1012.8
20260905171716 36 269 1.6 8.0 0.00 0.00 0.00 44 1012.8
20260905171003 36 311 4.8 8.0 0.00 0.00 0.00 46 1013.0
20260905170503 36 136 3.2 6.4 0.00 0.00 0.00 46 1012.9
20260905170003 36 211 3.2 9.7 0.00 0.00 0.00 47 1013.2
20260905165503 36 287 4.8 9.7 0.00 0.00 0.00 46 1013.3
20260905165003 35 62 1.6 9.7 0.00 0.00 0.00 46 1013.4
20260905164718 35 332 3.2 9.7 0.00 0.00 0.00 47 1013.5
20260905164003 35 289 1.6 9.7 0.00 0.00 0.00 48 1013.6
20260905163503 35 318 6.4 9.7 0.00 0.00 0.00 46 1013.6
20260905163003 35 15 1.6 6.4 0.00 0.00 0.00 50 1013.6
20260905162503 35 341 1.6 6.4 0.00 0.00 0.00 50 1013.6
20260905162003 35 301 3.2 6.4 0.00 0.00 0.00 50 1013.6
20260905161003 34 298 3.2 9.7 0.00 0.00 0.00 51 1013.7
20260905160503 34 40 4.8 9.7 0.00 0.00 0.00 52 1013.7
20260905160003 34 315 4.8 8.0 0.00 0.00 0.00 52 1013.7